Weather Roundup
Issued by NWS Chicago, IL

Home | Current Version | Previous Version | Text Only | Print | Product List | Glossary Off
Versions: 1 2 3 4 5 6 7 8 9 10 11 12 13 14 15 16 17 18 19 20 21 22 23 24 25 26 27 28 29 30 31 32 33 34 35 36 37 38 39 40 41 42 43 44 45 46 47 48 49 50

000
NZUS59 KLOT 011900
HRRLOT

CHICAGO AREA WEATHER ROUNDUP
NATIONAL WEATHER SERVICE CHICAGO/ROMEOVILLE IL
100 PM CST SUN FEB 01 2015

NOTE: "FAIR" INDICATES FEW OR NO CLOUDS BELOW 12,000 FEET WITH NO
SIGNIFICANT WEATHER AND/OR OBSTRUCTIONS TO VISIBILITY.

* THESE STATIONS ARE NOT UNDER NWS QUALITY CONTROL. THEY ALSO MAY NOT
  REPORT WEATHER SUCH AS PRECIPITATION OR FOG.

ILZ005-006-012>014-019>023-012000-
NORTHEAST ILLINOIS

CITY           SKY/WX    TMP DP  RH WIND       PRES   REMARKS
OHARE          HVY SNOW  25  24  96 NE24G31   29.76F VSB 1/4 WCI   9
MIDWAY         LGT SNOW  30  27  88 NE23G30   29.73F VSB 3/4 WCI  17
AURORA         HVY SNOW  28  23  81 NE29G35   29.74F VSB 1/4 WCI  12
WAUKEGAN       HVY SNOW  23  21  92 NE24G35   29.83F VSB 1/4 WCI   7
DUPAGE AIRPORT SNOW      27  23  85 NE24G33   29.75F VSB 1/4 WCI  12
WHEELING       HVY SNOW  25  23  92 NE15G29   29.82F VSB 1/4 WCI  13
NORTHERLY IS     N/A     28  27  96 NE26        N/A  WCI  13
$$

WIZ051-052-058>065-066-070>072-012000-
SOUTHEAST WISCONSIN

CITY           SKY/WX    TMP DP  RH WIND       PRES   REMARKS
MILWAUKEE      SNOW      22  18  85 NE25G35   29.93F VSB 1/4 WCI   5
KENOSHA*       SNOW      22  20  92 NE29G37   29.87F VSB 1/4 WCI   4
RACINE*        SNOW      23  19  85 NE28G35   29.92F VSB 1/2 WCI   6
WAUKESHA       LGT SNOW  21  18  86 NE12G35   29.93  VSB 1   WCI   9
$$

INZ001>003-010>013-019-020-012000-
NORTHWEST INDIANA

CITY           SKY/WX    TMP DP  RH WIND       PRES   REMARKS
GARY*          LGT SNOW  32  28  86 NE20G31   29.74F VSB 3/4 WCI  20
MICHIGAN CITY* NOT AVBL
RENSSELAER*    NOT AVBL
$$

LMZ740>746-012000-
SOUTHERN LAKE MICHIGAN

STATION/POSITION TIME  SKY/WX   TEMP WIND        PRES    VSBY
                                AIR  DIR/SP/G
                 (UTC)          (F)  (DEG/KT/KT) (MB)    (MI)
HARRISON CRIB    1800            27   60/ 30/ 36   N/A
BURNHAM HARBOR   1900            28   70/ 23/ 28   N/A
CALUMET HARBOR   1800            29   50/ 20/ 25   N/A
BURNS HARBOR     NOT AVBL
MICHIGAN CITY    1800            28   50/ 17/ 22   N/A
$$

ABBREVIATIONS USED IN REMARKS
   TC - TEMPERATURE IN CELSIUS
  WCI - WIND CHILL INDEX
   HX - HEAT INDEX
  VSB - VISIBILITY
$$


USA.gov is the U.S. government's official web portal to all federal, state and local government web resources and services.